1998-067TS (53307 NORAD) Tracking and Keplerian Element Data

This shows tracking and keplerian element data for the satellite.

Feedback or suggestion? Click here.




ElementValue
Catalog53307
Name1998-067TS
Epoch Orbit1911
Epoch Day325.14955368
Epoch Year2022
RAAN273.4329
Inclination51.6357
Eccentricity0.0008753
Argument of Perigee104.1028
Mean Anonmoly256.0941
Mean Motion15.66410015
Decay Rate0.0010504
L11 53307U 98067TS 22325.14955368 .00105040 00000+0 98175-3 0 9995
L22 53307 51.6357 273.4329 0008753 104.1028 256.0941 15.66410015 19114



Live tracking and technical data element details for 1998-067TS (NORAD 53307). 1998-067TS can be tracked NOW for your location showing map with azimuth and elevation plus other details from your city location.







IsCatalogInMostPopularTable: catalog: 53307, numindb: 4
Update: records affected: 1



GetName: 53307 1998-067TS

Hit Count: updated at: Thu, 08 Dec 2022 20:42:40 GMT